Location: *
(51.5000°N, 0.1100°W)
Time: 06:20:18
(UTC+00:00)

Cosmos 1025 Rocket - Pass Details

Date: 13 August 2024
Orbit: 590 x 612 km, 82.5° (Epoch: 07 September)

Event Time Altitude Azimuth Distance (km) Brightness Sun altitude
Rises 03:02:49 0° 356° (N) 2,891 7.2 -13.6°
Reaches altitude 10° 03:05:17 10° 8° (N) 1,983 6.5 -13.3°
Maximum altitude 03:09:09 29° 69° (ENE) 1,125 5.1 -12.9°
Drops below altitude 10° 03:12:59 10° 131° (SE) 1,971 5.7 -12.4°
Sets 03:15:26 0° 142° (SE) 2,870 6.4 -12.2°
